Temperature
18 18 18 18 18 18 18 18 18 18 18 18 18 18 18 18 18 18 18 18 18 18 18 18 18 18 18 18 18 18 18 18 18 17 17 17 17 17 17 17 17 17 17
18 18 18 18 18 18 18 18 18 18 18 18 18 18 18 18 18 18 18 18 18 18 18 18 18 18 18 18 18 18 17 17 17 17 17 17 17 17 17 17 17 17 17
18 18 18 18 18 18 18 18 18 18 18 18 18 18 18 18 18 18 18 18 18 18 18 18 18 18 18 18 18 18 17 17 17 17 17 17 17 17 17 17 17 17 17
18 18 18 18 18 18 18 18 18 18 18 18 18 18 18 18 18 18 18 18 18 18 18 18 18 18 18 18 18 17 17 17 17 17 17 17 17 17 17 17 17 17 17
18 18 18 18 18 18 18 18 18 18 18 18 18 18 18 18 18 18 18 18 18 18 18 18 18 17 18 17 17 17 17 17 17 17 17 17 17 17 17 17 17 17 17
18 18 18 18 18 18 18 18 18 18 18 18 18 18 18 18 18 18 18 18 18 18 18 18 17 17 17 17 17 17 17 17 17 17 17 17 17 17 17 17 17 17 17
18 18 18 18 18 18 18 18 18 18 18 18 18 18 18 18 18 18 18 18 18 18 18 18 17 17 17 17 17 17 17 17 17 17 17 17 17 17 17 17 17 17 17
18 18 18 18 18 18 18 18 18 18 18 18 18 18 18 18 18 18 18 18 18 17 17 17 17 17 17 17 17 17 17 17 17 17 17 17 17 17 17 17 17 17 17
18 18 18 18 18 18 18 18 18 18 18 18 18 18 18 18 18 18 18 18 18 18 17 17 17 17 17 17 17 17 17 17 17 17 17 17 17 17 17 17 17 17 17
18 18 18 18 18 18 18 18 18 18 18 18 18 18 18 18 18 18 18 18 18 18 18 17 17 17 17 17 17 17 17 17 17 17 17 17 17 17 17 17 17 17 17
18 18 18 18 18 18 18 18 18 18 18 18 18 18 18 18 18 18 18 18 18 18 17 17 17 17 17 17 17 17 17 17 17 17 17 17 17 17 17 17 17 17 17
19 19 19 19 18 18 18 18 18 18 18 18 18 18 18 18 18 18 18 17 17 17 17 17 17 17 17 17 17 17 17 17 17 17 17 17 17 17 17 17 17 17 17
19 19 19 19 19 18 18 18 18 18 18 18 18 18 18 18 18 18 17 17 17 17 17 17 17 17 17 17 17 17 17 17 17 17 17 17 17 17 17 17 17 17 17
19 19 19 19 19 18 18 18 18 18 18 18 18 18 18 18 18 18 18 17 17 17 17 17 17 17 17 17 17 17 17 17 17 17 17 17 17 17 17 17 17 17 17
20 19 19 19 19 19 18 18 18 18 18 18 18 18 18 18 18 18 18 17 17 17 17 17 17 17 17 17 17 17 17 17 17 17 17 17 17 17 17 17 17 17 17
20 20 19 19 19 19 18 18 18 18 18 18 18 18 18 18 18 18 18 18 17 17 17 17 17 17 17 17 17 17 17 17 17 17 17 17 17 17 17 17 17 17 17
20 20 19 19 19 19 19 18 18 18 18 18 18 18 18 18 18 18 18 18 17 17 17 17 17 17 17 17 17 17 17 17 18 18 18 18 18 17 17 17 17 17 17
20 20 20 19 19 19 19 19 18 18 18 18 18 18 18 18 18 18 18 18 17 17 17 17 17 17 17 17 18 17 18 18 18 18 18 18 18 18 17 17 17 17 17
21 20 20 20 20 19 19 19 18 18 18 18 18 18 18 18 18 18 18 18 17 17 17 17 17 17 17 18 18 18 18 18 18 18 18 18 18 18 18 17 17 17 17
21 21 20 20 20 19 19 19 18 18 18 18 18 18 18 18 18 18 18 18 17 17 17 17 17 17 17 17 17 18 18 18 18 18 18 18 18 18 18 18 17 17 17
21 21 21 20 20 20 19 19 19 19 19 19 18 18 18 18 18 18 18 18 18 18 18 17 17 17 17 17 17 18 18 18 18 18 18 18 18 18 18 18 18 18 18
22 21 21 21 20 20 20 19 19 19 19 19 19 18 18 18 18 18 18 18 18 18 18 18 17 17 17 17 17 17 17 18 18 18 18 18 18 18 18 18 18 18 18
22 22 21 21 21 20 20 19 19 19 19 19 19 19 19 18 18 18 18 18 18 18 18 18 17 17 17 17 17 17 17 17 18 18 18 18 18 18 18 18 18 18 18
23 22 22 21 21 21 20 20 19 19 19 20 19 19 19 18 18 18 18 18 18 18 18 18 17 17 17 17 17 17 17 17 17 17 18 18 18 18 18 18 18 18 18
23 23 22 22 21 21 20 20 20 20 20 19 19 19 19 19 19 18 18 18 18 18 18 18 17 17 17 17 17 17 17 17 17 17 17 17 17 17 17 17 17 17 17
23 23 22 22 21 21 21 20 20 20 20 20 19 19 19 19 19 19 18 18 18 18 18 18 18 18 17 17 17 17 17 17 17 17 17 17 17 17 17 17 17 17 17
Wind_Speed
1 2 9 12 14 15 17 17 18 18 19 19 19 19 19 19 18 17 16 16 15 15 15 15 14 14 14 14 13 14 14 14 14 14 14 14 14 14 14 14 14 13 14
3 5 11 13 15 16 16 17 18 18 18 18 18 18 18 18 17 16 15 15 14 14 14 14 14 14 14 13 13 13 13 13 13 13 13 13 13 13 13 13 12 11 13
5 7 12 14 14 15 16 16 17 17 17 17 17 17 17 16 16 15 14 14 13 13 13 13 13 13 13 13 13 13 12 12 12 12 11 10 10 11 12 12 12 12 12
6 7 10 14 14 14 14 15 16 16 16 16 15 15 15 15 14 13 13 12 12 12 12 12 12 13 12 12 12 12 11 11 11 10 8 8 8 10 10 11 11 11 11
6 7 10 13 13 13 13 13 14 14 14 14 14 14 14 13 13 12 11 11 11 11 11 11 11 11 11 10 10 10 10 10 10 8 7 7 7 9 9 10 10 11 10
6 7 10 13 12 12 12 12 12 12 12 13 13 12 12 12 12 11 10 10 10 10 10 9 9 10 10 9 9 9 9 9 8 7 6 6 6 8 9 10 10 10 10
6 6 9 13 12 11 11 11 11 11 11 11 11 11 11 11 10 10 9 9 9 9 9 9 9 9 9 8 8 8 8 8 7 6 5 5 7 9 9 9 9 9 9
6 6 8 12 12 11 10 10 10 10 10 10 10 10 10 9 9 8 8 8 8 8 7 8 8 7 7 7 7 6 6 7 6 5 5 5 7 9 9 9 9 9 9
5 5 5 7 9 10 10 10 10 10 9 9 9 9 9 8 8 7 7 7 6 6 6 7 7 6 6 6 6 6 5 5 6 5 5 5 7 9 9 9 9 9 9
4 3 3 4 5 6 7 9 9 9 9 9 8 8 7 7 7 7 6 5 5 6 6 6 6 6 5 5 5 5 5 5 5 5 4 5 8 9 10 10 10 9 9
5 3 3 3 4 4 5 7 8 8 8 8 7 7 6 4 4 4 5 5 5 6 5 5 5 5 4 3 3 4 4 4 5 4 5 6 8 10 10 11 10 10 10
7 5 4 4 4 5 5 4 4 4 4 4 4 4 4 3 2 2 3 4 5 5 4 4 4 3 2 2 2 2 3 4 4 4 6 8 9 10 10 11 12 12 11
8 7 6 5 5 4 3 3 3 3 3 3 4 4 3 2 1 1 1 1 2 2 2 1 1 1 1 1 1 2 3 4 4 5 6 9 10 10 11 12 13 13 12
7 8 6 6 5 5 4 3 3 3 3 3 4 4 3 2 1 1 1 1 1 1 1 1 1 1 1 2 2 2 3 4 4 5 7 9 10 11 12 13 13 14 14
9 8 7 7 6 5 4 3 3 3 4 4 4 5 5 3 2 2 1 2 2 2 2 2 1 1 1 2 2 3 4 5 6 6 7 9 11 12 12 13 14 15 15
10 9 8 8 7 6 5 4 3 4 5 5 5 6 6 5 3 2 2 2 2 3 3 2 2 2 2 2 3 3 4 5 6 7 8 9 11 12 13 13 14 15 15
10 9 9 8 7 7 6 6 5 5 6 5 6 7 7 6 5 4 3 2 3 3 2 2 2 2 2 2 3 3 4 5 6 7 8 8 9 11 13 14 15 15 16
9 9 9 9 8 8 6 5 4 5 6 5 6 6 7 7 7 4 3 3 3 2 2 2 1 1 2 2 2 3 3 4 5 6 7 8 8 9 11 14 16 16 17
10 10 9 8 9 8 7 5 4 4 5 5 6 6 7 7 8 6 4 3 3 2 2 2 1 2 2 2 3 3 3 4 4 5 6 7 9 10 10 12 15 16 17
9 9 9 8 8 7 5 3 2 2 3 4 5 6 7 7 8 6 4 4 3 2 2 2 2 2 2 2 2 3 3 3 3 4 5 6 7 9 10 11 11 12 15
9 9 10 9 8 6 4 4 3 3 3 3 4 6 7 8 7 6 4 4 4 3 4 3 2 2 1 1 0 2 3 2 2 3 3 4 5 7 8 9 9 9 9
12 11 10 10 9 8 6 4 3 3 3 3 3 4 6 7 7 6 5 4 4 3 3 3 3 1 1 1 1 0 2 3 2 1 1 2 3 3 4 6 7 8 8
12 13 12 11 9 9 7 3 2 1 0 1 2 3 4 6 7 6 6 5 5 4 4 4 4 4 2 2 2 2 1 2 3 2 2 1 2 2 3 3 4 6 7
13 12 11 11 10 9 8 7 6 5 5 5 4 4 3 4 5 6 6 6 5 4 4 5 5 4 4 3 2 2 2 2 1 2 2 2 2 2 2 2 3 3 4
12 11 10 9 8 8 8 9 8 6 5 3 3 3 4 3 4 5 5 5 5 4 5 5 4 4 4 4 3 2 2 1 2 2 3 3 2 2 2 2 1 1 1
10 10 9 9 8 8 8 8 8 8 7 5 4 4 4 3 3 4 4 5 4 4 5 5 5 5 5 4 4 3 3 2 3 3 4 3 2 2 2 1 1 1 1
Wind_Direction
156 155 133 123 118 114 116 118 119 119 120 121 122 124 124 124 123 123 122 121 120 119 118 117 117 117 117 117 115 115 116 117 117 116 116 116 116 116 115 113 112 115 116
146 137 130 125 121 120 120 120 120 120 121 123 124 126 127 127 126 125 124 122 121 120 119 119 119 118 119 120 120 119 119 121 122 122 120 120 120 120 120 118 119 123 122
123 127 127 125 122 122 122 121 121 122 122 121 122 124 127 127 127 126 125 123 122 121 122 123 123 122 123 124 124 122 122 123 122 122 117 114 121 126 128 127 126 126 125
125 125 131 129 125 123 122 124 124 124 124 123 123 124 126 127 128 128 128 127 126 125 126 126 127 126 126 128 128 126 125 125 122 121 116 120 125 132 135 134 131 129 128
119 126 136 133 128 127 124 126 126 126 127 127 127 127 127 128 129 131 131 131 130 129 129 129 130 130 132 133 132 131 131 131 126 123 123 126 129 139 142 140 137 135 133
124 134 142 136 131 129 129 127 127 129 130 130 131 132 132 132 131 132 134 133 134 134 134 136 136 136 137 136 136 137 137 135 125 124 130 139 149 153 151 148 146 143 142
132 138 146 142 138 135 133 132 132 134 134 134 135 136 137 136 134 134 137 139 141 141 141 141 139 141 141 141 140 141 143 141 135 134 142 153 162 162 158 155 152 150 149
137 138 147 147 145 145 144 141 141 140 139 139 138 140 142 142 141 141 141 143 145 149 150 149 146 147 146 144 143 140 145 146 144 146 152 163 168 166 163 164 161 159 155
128 130 137 149 150 152 153 150 148 146 146 144 142 144 148 149 150 150 149 150 152 152 154 155 155 154 148 145 143 141 147 152 145 153 161 166 176 176 175 175 171 169 167
128 133 136 139 142 149 157 157 156 155 154 151 150 151 151 158 159 157 155 160 162 160 161 164 164 160 151 147 148 151 155 150 156 160 169 181 187 187 187 185 182 179 178
168 162 156 151 148 151 161 167 164 163 164 159 160 160 149 138 141 157 169 177 177 175 173 175 172 171 161 148 159 165 155 157 168 182 191 197 199 198 197 196 192 190 189
189 186 178 173 167 167 174 158 155 158 155 150 149 146 139 140 157 175 188 196 194 191 189 190 185 172 152 129 168 173 161 175 183 201 209 209 209 209 207 204 201 200 199
189 188 182 180 176 175 168 151 147 147 147 154 162 162 155 157 184 190 188 223 217 207 194 191 168 152 154 165 183 193 196 194 200 211 217 219 217 216 216 212 208 207 207
185 193 186 180 180 184 176 169 161 160 167 181 190 185 176 179 198 203 193 215 216 206 178 167 155 212 225 233 229 225 223 218 219 221 227 227 223 224 224 218 215 213 212
191 196 190 182 185 185 178 187 179 184 191 203 209 207 195 190 200 202 211 219 216 202 194 189 187 219 245 265 261 239 236 232 230 230 232 233 231 229 229 224 221 219 217
194 195 188 187 187 182 185 193 193 194 200 208 219 219 206 201 200 198 211 214 219 211 204 196 200 219 241 250 262 250 245 244 237 234 233 236 238 233 232 231 226 223 223
193 191 189 191 186 185 191 198 199 202 202 209 219 217 211 204 201 199 207 218 220 208 195 191 211 214 233 241 253 252 246 245 245 239 236 236 238 238 236 233 230 229 228
186 186 192 196 187 191 193 196 196 200 201 210 214 215 214 208 203 198 207 224 218 188 175 186 200 215 236 238 251 259 248 247 248 243 238 236 234 236 236 234 233 233 233
185 185 188 190 184 190 190 190 194 196 202 210 210 214 217 212 207 199 207 217 207 187 197 211 198 199 232 250 254 256 255 252 251 250 242 238 234 234 236 239 239 238 237
183 184 189 189 185 179 170 167 176 205 216 212 212 216 216 215 210 201 207 212 195 192 214 213 214 213 231 251 273 279 275 267 256 249 248 243 238 238 239 241 242 244 242
180 185 190 190 186 171 166 175 186 211 216 218 222 221 214 213 209 201 211 206 197 205 215 206 199 213 237 203 312 318 312 293 274 258 249 244 245 246 243 240 239 240 246
188 190 192 196 188 185 187 179 177 183 203 213 221 218 215 214 211 210 207 209 204 206 213 206 188 183 227 166 161 1 333 334 327 309 264 243 251 249 246 242 236 236 241
194 194 197 195 191 191 184 159 136 117 112 192 217 222 222 218 215 214 210 205 204 202 217 219 198 193 210 210 188 170 176 261 307 322 319 292 280 268 260 249 240 239 240
199 195 194 190 190 189 178 177 183 194 209 216 210 215 225 219 217 214 209 205 206 203 215 227 211 200 193 215 211 214 206 189 226 318 323 324 320 302 288 272 264 251 242
192 188 189 186 189 186 184 188 192 207 215 213 209 219 224 222 220 217 206 202 207 209 214 218 210 205 200 205 202 196 205 202 205 221 282 310 324 313 298 280 275 272 264
185 183 180 180 188 185 187 192 196 204 206 205 213 219 225 224 225 221 206 203 208 211 215 215 212 211 211 209 207 201 190 189 199 203 238 269 290 300 316 317 299 291 275
Height
1508 1508 1509 1510 1512 1513 1514 1516 1517 1519 1521 1522 1524 1526 1527 1529 1531 1532 1534 1535 1537 1538 1540 1541 1542 1543 1545 1546 1547 1548 1549 1550 1550 1551 1552 1553 1554 1555 1556 1557 1558 1559 1559
1508 1509 1510 1512 1514 1515 1517 1518 1520 1522 1523 1525 1527 1528 1530 1531 1533 1534 1536 1538 1539 1540 1542 1543 1544 1545 1546 1547 1548 1549 1550 1551 1552 1553 1554 1555 1556 1557 1558 1559 1559 1560 1561
1510 1511 1512 1514 1516 1517 1519 1521 1522 1524 1526 1527 1529 1530 1532 1534 1535 1537 1538 1540 1541 1542 1543 1544 1545 1546 1548 1549 1549 1550 1552 1553 1554 1554 1555 1556 1558 1558 1559 1560 1561 1562 1563
1512 1513 1515 1517 1518 1520 1521 1523 1525 1527 1528 1529 1531 1532 1534 1536 1537 1539 1540 1541 1543 1544 1545 1546 1547 1548 1549 1550 1551 1552 1553 1554 1555 1556 1557 1558 1559 1560 1561 1562 1563 1563 1564
1514 1515 1517 1519 1520 1522 1523 1525 1527 1529 1530 1532 1533 1535 1536 1537 1539 1540 1542 1543 1544 1545 1546 1547 1548 1549 1550 1551 1552 1553 1554 1556 1556 1557 1558 1559 1560 1561 1562 1563 1564 1565 1566
1516 1518 1519 1521 1522 1524 1526 1527 1529 1531 1532 1534 1535 1536 1537 1539 1540 1542 1543 1544 1545 1546 1547 1548 1549 1550 1551 1552 1553 1555 1556 1557 1558 1559 1559 1560 1561 1562 1563 1564 1565 1566 1567
1518 1520 1521 1523 1525 1526 1528 1529 1531 1532 1534 1535 1536 1538 1539 1540 1542 1543 1544 1545 1546 1547 1548 1549 1550 1551 1552 1553 1555 1556 1557 1558 1559 1560 1561 1562 1562 1563 1564 1565 1566 1567 1568
1520 1521 1523 1525 1527 1528 1530 1531 1533 1534 1535 1536 1538 1539 1540 1542 1543 1544 1545 1546 1547 1548 1549 1550 1551 1552 1553 1554 1555 1557 1558 1559 1560 1561 1562 1562 1563 1564 1565 1565 1566 1567 1568
1521 1523 1525 1527 1528 1530 1531 1532 1534 1535 1536 1538 1539 1540 1541 1543 1544 1545 1546 1547 1548 1549 1550 1551 1552 1553 1554 1555 1556 1557 1558 1560 1561 1562 1562 1563 1564 1564 1565 1566 1567 1568 1569
1523 1525 1526 1528 1529 1531 1532 1534 1535 1536 1537 1539 1540 1541 1542 1543 1545 1546 1547 1548 1548 1549 1551 1552 1553 1554 1555 1556 1557 1558 1559 1560 1561 1562 1563 1563 1564 1565 1565 1566 1567 1568 1569
1524 1526 1527 1529 1531 1532 1533 1535 1536 1537 1538 1540 1541 1542 1543 1544 1545 1546 1547 1548 1549 1550 1551 1552 1553 1554 1555 1556 1557 1558 1559 1560 1561 1562 1563 1563 1564 1565 1565 1566 1567 1568 1569
1524 1526 1528 1530 1531 1533 1534 1536 1537 1538 1539 1540 1542 1543 1544 1545 1546 1547 1548 1548 1549 1551 1552 1553 1554 1555 1556 1557 1558 1559 1560 1560 1561 1562 1563 1563 1564 1565 1565 1566 1567 1567 1568
1524 1526 1528 1530 1532 1534 1535 1537 1538 1539 1540 1541 1542 1543 1545 1546 1547 1548 1548 1549 1550 1551 1552 1553 1554 1555 1556 1557 1558 1559 1560 1560 1561 1562 1562 1563 1563 1564 1565 1565 1566 1567 1567
1525 1527 1529 1531 1532 1534 1536 1537 1539 1540 1541 1542 1543 1544 1545 1546 1547 1548 1549 1549 1550 1551 1552 1553 1554 1555 1556 1557 1558 1559 1559 1560 1561 1561 1562 1562 1563 1563 1563 1564 1564 1565 1566
1525 1527 1529 1531 1533 1535 1536 1538 1539 1540 1541 1543 1544 1545 1546 1547 1548 1548 1549 1550 1550 1551 1552 1553 1554 1555 1556 1557 1558 1558 1559 1559 1560 1560 1561 1561 1562 1562 1562 1562 1563 1564 1565
1524 1527 1529 1531 1533 1534 1536 1538 1539 1541 1542 1543 1544 1545 1546 1547 1548 1548 1549 1550 1550 1551 1552 1553 1554 1555 1556 1556 1557 1557 1558 1558 1559 1559 1559 1560 1560 1561 1561 1561 1561 1562 1563
1524 1527 1529 1531 1533 1534 1536 1538 1539 1541 1542 1543 1544 1545 1546 1547 1548 1549 1549 1550 1550 1551 1552 1553 1553 1554 1555 1555 1556 1556 1557 1557 1557 1558 1558 1558 1559 1559 1559 1560 1560 1560 1561
1524 1526 1528 1530 1532 1534 1536 1537 1539 1541 1542 1543 1544 1545 1546 1547 1548 1548 1549 1549 1550 1551 1551 1552 1553 1553 1554 1554 1555 1555 1555 1555 1556 1556 1556 1556 1557 1557 1557 1558 1558 1559 1559
1523 1525 1527 1529 1531 1533 1535 1537 1539 1540 1541 1542 1543 1544 1545 1546 1547 1548 1548 1549 1550 1550 1551 1551 1552 1552 1552 1553 1553 1553 1553 1554 1554 1554 1554 1554 1554 1555 1555 1556 1556 1557 1557
1522 1524 1526 1528 1530 1533 1535 1536 1538 1539 1540 1542 1542 1544 1545 1545 1546 1547 1548 1548 1549 1549 1550 1550 1551 1551 1551 1552 1551 1551 1552 1551 1551 1551 1552 1552 1552 1552 1553 1553 1554 1554 1554
1520 1522 1525 1527 1529 1531 1533 1535 1536 1538 1539 1540 1542 1543 1544 1544 1545 1546 1547 1547 1548 1549 1549 1550 1550 1550 1550 1550 1550 1550 1550 1549 1549 1549 1549 1549 1550 1550 1550 1551 1551 1551 1551
1517 1520 1523 1525 1528 1530 1532 1534 1535 1537 1538 1539 1540 1541 1542 1543 1544 1544 1545 1546 1547 1547 1548 1548 1549 1549 1549 1549 1549 1548 1548 1548 1547 1547 1547 1547 1548 1548 1548 1548 1548 1548 1548
1513 1516 1519 1523 1526 1528 1530 1532 1534 1535 1536 1537 1538 1539 1540 1541 1542 1542 1543 1544 1545 1546 1546 1547 1547 1547 1548 1548 1548 1548 1547 1546 1546 1546 1545 1546 1546 1546 1546 1546 1545 1545 1545
1510 1514 1517 1520 1523 1525 1528 1530 1531 1532 1533 1535 1536 1537 1538 1539 1540 1541 1541 1542 1543 1544 1544 1545 1546 1546 1546 1546 1546 1546 1547 1546 1546 1545 1545 1544 1544 1544 1543 1543 1543 1543 1543
1506 1510 1514 1517 1520 1523 1525 1527 1529 1530 1531 1532 1534 1535 1536 1537 1538 1539 1539 1540 1541 1541 1542 1543 1543 1544 1544 1544 1544 1544 1544 1544 1544 1544 1543 1543 1542 1541 1541 1540 1540 1540 1540
1503 1507 1511 1514 1517 1520 1522 1524 1526 1527 1528 1529 1530 1532 1533 1534 1535 1536 1537 1538 1538 1539 1540 1540 1541 1541 1542 1542 1542 1542 1542 1542 1542 1542 1541 1540 1540 1539 1539 1538 1538 1538 1537